When you browse on this site, cookies collect data to enhance your experience and personalize the content and advertising you see.
Visit our Privacy Policy to learn more. By continuing to use the site, you agree to this use of cookies and data.
  • In Latvia
  • List of Countries
  • For 7 days
  • Water Temperature
  • Satellite Maps
  • Weather Map
  • Weather Widgets
  • user-avatar
    Login

    Hourly Weather Lowce

    Today, 20 February, Wednesday

    Time Temperature Precipitation Wind Pressure Humidity
    00:00 +4°C° 0 mm 4 mps 743 mmHg 82%
    01:00 +4°C° 0 mm 4 mps 743 mmHg 84%
    02:00 +4°C° 0 mm 2 mps 743 mmHg 89%
    03:00 +3°C° 0.3 mm 3 mps 743 mmHg 89%
    04:00 +4°C° 0.3 mm 4 mps 743 mmHg 90%
    05:00 +3°C° 0.3 mm 5 mps 743 mmHg 90%
    06:00 +2°C° 0 mm 5 mps 744 mmHg 91%
    07:00 +3°C° 0 mm 4 mps 744 mmHg 91%
    08:00 +1°C° 0 mm 4 mps 744 mmHg 92%
    09:00 +2°C° 0 mm 5 mps 744 mmHg 87%
    10:00 +3°C° 0 mm 6 mps 745 mmHg 81%
    11:00 +4°C° 0 mm 6 mps 745 mmHg 76%
    12:00 +4°C° 0.1 mm 6 mps 745 mmHg 72%
    13:00 +4°C° 0.1 mm 7 mps 745 mmHg 69%
    14:00 +5°C° 0 mm 7 mps 745 mmHg 61%
    15:00 +5°C° 0.1 mm 7 mps 745 mmHg 62%
    16:00 +5°C° 0.1 mm 6 mps 746 mmHg 62%
    17:00 +4°C° 0.1 mm 6 mps 746 mmHg 63%
    18:00 +5°C° 0 mm 5 mps 746 mmHg 66%
    19:00 +3°C° 0 mm 5 mps 746 mmHg 69%
    20:00 +4°C° 0 mm 4 mps 747 mmHg 72%
    21:00 +4°C° 0 mm 4 mps 747 mmHg 74%
    22:00 +4°C° 0 mm 4 mps 747 mmHg 76%
    23:00 +3°C° 0 mm 4 mps 748 mmHg 78%

    Tomorrow, 21 February, Thursday

    Time Temperature Precipitation Wind Pressure Humidity
    00:00 +3°C° 0 mm 4 mps 748 mmHg 81%
    01:00 +3°C° 0 mm 4 mps 748 mmHg 83%
    02:00 +1°C° 0 mm 4 mps 749 mmHg 86%
    03:00 +1°C° 0 mm 4 mps 749 mmHg 87%
    04:00 +1°C° 0 mm 4 mps 749 mmHg 89%
    05:00 0°C° 0 mm 4 mps 749 mmHg 90%
    06:00 0°C° 0 mm 4 mps 749 mmHg 90%
    07:00 +1°C° 0 mm 4 mps 749 mmHg 89%
    08:00 +1°C° 0 mm 4 mps 749 mmHg 88%
    09:00 +2°C° 0 mm 5 mps 750 mmHg 85%
    10:00 +2°C° 0 mm 5 mps 750 mmHg 81%
    11:00 +3°C° 0 mm 5 mps 750 mmHg 78%
    12:00 +5°C° 0 mm 5 mps 749 mmHg 74%
    13:00 +5°C° 0 mm 6 mps 749 mmHg 70%
    14:00 +7°C° 0 mm 6 mps 749 mmHg 66%
    15:00 +7°C° 0 mm 5 mps 749 mmHg 67%
    16:00 +7°C° 0 mm 4 mps 748 mmHg 68%
    17:00 +8°C° 0 mm 3 mps 748 mmHg 68%
    18:00 +6°C° 0.1 mm 4 mps 748 mmHg 71%
    19:00 +6°C° 0.1 mm 4 mps 748 mmHg 74%
    20:00 +5°C° 0.1 mm 4 mps 747 mmHg 77%
    21:00 +5°C° 0.5 mm 5 mps 747 mmHg 80%
    22:00 +5°C° 0.5 mm 5 mps 747 mmHg 82%
    23:00 +5°C° 0.5 mm 5 mps 746 mmHg 85%

    Day after tomorrow, 22 February, Friday

    Time Temperature Precipitation Wind Pressure Humidity
    00:00 +5°C° 0.8 mm 5 mps 746 mmHg 86%
    01:00 +3°C° 0.8 mm 5 mps 746 mmHg 86%
    02:00 +3°C° 0.8 mm 5 mps 745 mmHg 87%
    03:00 +3°C° 0.7 mm 5 mps 745 mmHg 88%
    04:00 +3°C° 0.7 mm 5 mps 745 mmHg 89%
    05:00 +3°C° 0.7 mm 5 mps 744 mmHg 89%
    06:00 +3°C° 1 mm 6 mps 745 mmHg 90%
    07:00 +2°C° 1 mm 6 mps 745 mmHg 90%
    08:00 0°C° 1 mm 7 mps 746 mmHg 90%
    09:00 -1°C° 0.4 mm 7 mps 747 mmHg 86%
    10:00 -2°C° 0.4 mm 6 mps 748 mmHg 81%
    11:00 -4°C° 0.4 mm 6 mps 750 mmHg 77%
    12:00 -4°C° 0 mm 6 mps 751 mmHg 71%
    13:00 -3°C° 0 mm 6 mps 752 mmHg 65%
    14:00 -3°C° 0 mm 6 mps 753 mmHg 59%
    15:00 -4°C° 0 mm 6 mps 753 mmHg 59%
    16:00 -4°C° 0 mm 6 mps 754 mmHg 58%
    17:00 -5°C° 0 mm 6 mps 754 mmHg 58%
    18:00 -6°C° 0 mm 5 mps 755 mmHg 59%
    19:00 -6°C° 0 mm 5 mps 756 mmHg 59%
    20:00 -7°C° 0 mm 5 mps 757 mmHg 59%
    21:00 -7°C° 0 mm 5 mps 757 mmHg 56%
    22:00 -7°C° 0 mm 5 mps 758 mmHg 52%
    23:00 -7°C° 0 mm 5 mps 759 mmHg 49%

    23 February, Saturday

    Time Temperature Precipitation Wind Pressure Humidity
    00:00 -7°C° 0 mm 5 mps 759 mmHg 49%
    01:00 -7°C° 0 mm 5 mps 759 mmHg 48%
    02:00 -7°C° 0 mm 5 mps 759 mmHg 47%
    03:00 -8°C° 0 mm 5 mps 759 mmHg 48%
    04:00 -8°C° 0 mm 4 mps 760 mmHg 49%
    05:00 -8°C° 0 mm 4 mps 760 mmHg 50%
    06:00 -8°C° 0 mm 4 mps 760 mmHg 51%
    07:00 -8°C° 0 mm 4 mps 760 mmHg 52%
    08:00 -7°C° 0 mm 3 mps 760 mmHg 53%
    09:00 -8°C° 0 mm 4 mps 761 mmHg 50%
    10:00 -7°C° 0 mm 4 mps 761 mmHg 48%
    11:00 -7°C° 0 mm 4 mps 762 mmHg 45%
    12:00 -5°C° 0 mm 4 mps 761 mmHg 43%
    13:00 -4°C° 0 mm 4 mps 761 mmHg 40%
    14:00 -4°C° 0 mm 4 mps 761 mmHg 38%
    15:00 -4°C° 0 mm 4 mps 761 mmHg 38%
    16:00 -4°C° 0 mm 4 mps 761 mmHg 38%
    17:00 -4°C° 0 mm 4 mps 761 mmHg 39%
    18:00 -4°C° 0 mm 3 mps 761 mmHg 41%
    19:00 -4°C° 0 mm 2 mps 761 mmHg 44%
    20:00 -4°C° 0 mm 2 mps 761 mmHg 47%
    21:00 -4°C° 0 mm 2 mps 761 mmHg 47%
    22:00 -2°C° 0 mm 1 mps 761 mmHg 47%
    23:00 -2°C° 0 mm 1 mps 761 mmHg 46%

    24 February, Sunday

    Time Temperature Precipitation Wind Pressure Humidity
    00:00 -2°C° 0 mm 1 mps 761 mmHg 47%
    01:00 -3°C° 0 mm 1 mps 761 mmHg 47%
    02:00 -3°C° 0 mm 1 mps 761 mmHg 47%
    03:00 -3°C° 0 mm 1 mps 760 mmHg 47%
    04:00 -5°C° 0 mm 2 mps 760 mmHg 46%
    05:00 -5°C° 0 mm 2 mps 760 mmHg 46%
    06:00 -4°C° 0 mm 2 mps 760 mmHg 44%
    07:00 -4°C° 0 mm 2 mps 760 mmHg 43%
    08:00 -4°C° 0 mm 2 mps 760 mmHg 42%
    09:00 -4°C° 0 mm 3 mps 759 mmHg 38%
    10:00 -2°C° 0 mm 3 mps 759 mmHg 35%
    11:00 -1°C° 0 mm 3 mps 759 mmHg 32%
    12:00 0°C° 0 mm 3 mps 759 mmHg 32%
    13:00 +1°C° 0 mm 3 mps 758 mmHg 32%
    14:00 +1°C° 0 mm 4 mps 757 mmHg 33%
    15:00 +1°C° 0 mm 3 mps 757 mmHg 36%
    16:00 +1°C° 0 mm 3 mps 757 mmHg 38%
    17:00 +1°C° 0 mm 3 mps 756 mmHg 41%
    18:00 +1°C° 0 mm 3 mps 756 mmHg 45%
    19:00 0°C° 0 mm 4 mps 756 mmHg 48%
    20:00 0°C° 0 mm 4 mps 756 mmHg 52%
    21:00 -1°C° 0 mm 4 mps 755 mmHg 56%
    22:00 -1°C° 0 mm 4 mps 755 mmHg 60%
    23:00 -1°C° 0 mm 5 mps 755 mmHg 64%

    25 February, Monday

    Time Temperature Precipitation Wind Pressure Humidity
    00:00 -1°C° 0 mm 5 mps 754 mmHg 68%
    01:00 -1°C° 0 mm 5 mps 754 mmHg 72%
    02:00 -2°C° 0 mm 6 mps 753 mmHg 76%
    03:00 -2°C° 0.1 mm 6 mps 753 mmHg 81%
    04:00 -2°C° 0.1 mm 6 mps 753 mmHg 85%
    05:00 -1°C° 0.1 mm 6 mps 752 mmHg 90%
    06:00 -1°C° 0.1 mm 6 mps 752 mmHg 89%
    07:00 -1°C° 0.1 mm 6 mps 753 mmHg 88%
    08:00 0°C° 0.1 mm 5 mps 753 mmHg 87%
    09:00 -1°C° 0.1 mm 6 mps 753 mmHg 84%
    10:00 -1°C° 0.1 mm 7 mps 753 mmHg 80%
    11:00 -1°C° 0.1 mm 7 mps 753 mmHg 77%
    12:00 0°C° 0 mm 7 mps 753 mmHg 72%
    13:00 +1°C° 0 mm 8 mps 752 mmHg 67%
    14:00 +1°C° 0 mm 8 mps 752 mmHg 62%
    15:00 +2°C° 0 mm 7 mps 752 mmHg 63%
    16:00 +2°C° 0 mm 7 mps 752 mmHg 64%
    17:00 +1°C° 0 mm 6 mps 752 mmHg 65%
    18:00 +1°C° 0 mm 6 mps 752 mmHg 66%
    19:00 -1°C° 0 mm 6 mps 752 mmHg 68%
    20:00 0°C° 0 mm 5 mps 753 mmHg 70%
    21:00 -1°C° 0 mm 5 mps 753 mmHg 73%
    22:00 -1°C° 0 mm 5 mps 753 mmHg 77%
    23:00 -2°C° 0 mm 4 mps 753 mmHg 80%
    Show more